Location: Altamira
(10.5079°N, 66.8544°W)
Time: 09:08:58
(UTC+00:00)

CZ-3B Rocket - Pass Details

Date: 08 December 2021
Orbit: 564 x 35790 km, 18.2° (Epoch: 24 January)

Event Time Altitude Azimuth Distance (km) Brightness Sun altitude
Rises 22:14:43 0° 290° (WNW) 3,012 5.9 -2.9°
Reaches altitude 10° 22:16:13 10° 296° (WNW) 2,364 5.2 -3.3°
Maximum altitude 22:20:57 58° 17° (NNE) 1,641 3.5 -4.4°
Drops below altitude 10° 22:46:44 10° 95° (E) 11,225 7.4 -10.2°
Sets 23:36:59 0° 101° (ESE) 23,508 9.1 -21.8°
